TimeCST,TemperatureF,Dew PointF,Humidity,Sea Level PressureIn,VisibilityMPH,Wind Direction,Wind SpeedMPH,Gust SpeedMPH,PrecipitationIn,Events,Conditions,WindDirDegrees,DateUTC
12:53 AM,10.9,1.9,67,30.33,10.0,SE,5.8,-,N/A,,Clear,140,2013-01-23 06:53:00
1:53 AM,10.9,3.0,70,30.32,10.0,SSE,4.6,-,N/A,,Clear,160,2013-01-23 07:53:00
2:53 AM,10.9,3.9,73,30.30,10.0,South,8.1,-,N/A,,Clear,180,2013-01-23 08:53:00
3:53 AM,10.0,5.0,80,30.29,10.0,South,9.2,-,N/A,,Clear,180,2013-01-23 09:53:00
4:53 AM,10.0,5.0,80,30.27,10.0,South,6.9,-,N/A,,Clear,180,2013-01-23 10:53:00
5:53 AM,9.0,6.1,88,30.25,10.0,South,9.2,-,N/A,,Clear,190,2013-01-23 11:53:00
6:53 AM,10.0,6.1,84,30.25,10.0,South,9.2,-,N/A,,Clear,180,2013-01-23 12:53:00
7:53 AM,10.0,7.0,87,30.25,10.0,South,6.9,-,N/A,,Clear,180,2013-01-23 13:53:00
8:53 AM,14.0,9.0,80,30.26,10.0,SSW,10.4,-,N/A,,Clear,210,2013-01-23 14:53:00
9:53 AM,21.0,12.0,68,30.25,10.0,WSW,12.7,-,N/A,,Clear,240,2013-01-23 15:53:00
10:53 AM,28.0,14.0,56,30.26,10.0,West,12.7,-,N/A,,Clear,270,2013-01-23 16:53:00
11:53 AM,32.0,15.1,50,30.24,10.0,WNW,12.7,-,N/A,,Clear,300,2013-01-23 17:53:00
12:53 PM,36.0,17.1,46,30.22,10.0,NNW,12.7,20.7,N/A,,Clear,340,2013-01-23 18:53:00
1:53 PM,36.0,17.1,46,30.22,10.0,NNW,13.8,-,N/A,,Clear,330,2013-01-23 19:53:00
2:53 PM,36.0,15.1,43,30.25,10.0,North,16.1,21.9,N/A,,Clear,350,2013-01-23 20:53:00
3:53 PM,33.1,12.9,43,30.27,10.0,North,15.0,-,N/A,,Clear,350,2013-01-23 21:53:00
4:53 PM,28.9,12.9,51,30.30,10.0,NNW,13.8,-,N/A,,Clear,340,2013-01-23 22:53:00
5:53 PM,26.1,12.9,58,30.33,10.0,North,9.2,-,N/A,,Clear,350,2013-01-23 23:53:00
6:53 PM,24.1,12.0,60,30.36,10.0,North,17.3,23.0,N/A,,Clear,360,2013-01-24 00:53:00
7:53 PM,21.0,10.0,63,30.39,10.0,North,17.3,25.3,N/A,,Clear,360,2013-01-24 01:53:00
8:53 PM,18.0,6.1,60,30.43,10.0,North,16.1,25.3,N/A,,Clear,350,2013-01-24 02:53:00
9:53 PM,14.0,1.0,56,30.45,10.0,North,12.7,-,N/A,,Clear,360,2013-01-24 03:53:00
10:53 PM,10.9,-0.9,59,30.48,10.0,North,11.5,25.3,N/A,,Clear,10,2013-01-24 04:53:00
11:53 PM,8.1,-2.0,64,30.53,10.0,North,11.5,-,N/A,,Clear,10,2013-01-24 05:53:00